SM6TPN Halmstad SE current weather conditions

sailwx.info

Wind from 206 at 2 knots gusting 11

Air temperature 16.7° C
Dewpoint 15.0° C

Last reported at 2018-Jun-20 20:57 UTC.
Time now 2018-Jun-20 21:16 UTC

Location: N 56°40' E 012°48'.
View on Google Maps.

See reports from other nearby stations

  
Tides and Currents Weather Stations Pressure Air Temp Water Temp Dewpoint Dewpoint Depression Visibility Wind Speed Wind Dir Waves Ship Positions
date/time (UTC)wind fromknots sea level pressurealtimeterstation pressurevisibilityair tempwater tempwave heightnotes
2018-Jun-20 21:06 245 2 gusting 9 16.7
2018-Jun-20 20:57 206 2 gusting 11 16.7
2018-Jun-20 20:48 217 2 gusting 8 16.7
2018-Jun-20 20:30 188 2 gusting 8 16.7
2018-Jun-20 20:21 202 1 gusting 8 16.7
2018-Jun-20 20:12 211 1 gusting 6 16.7
2018-Jun-20 19:54 210 0 gusting 4 17.2
2018-Jun-20 19:45 216 2 gusting 9 17.2
2018-Jun-20 19:27 203 1 gusting 6 17.2
2018-Jun-20 19:18 206 1 gusting 5 17.2
2018-Jun-20 19:09 238 1 gusting 7 17.2
2018-Jun-20 19:00 199 1 gusting 7 17.2
2018-Jun-20 18:51 200 1 gusting 6 17.2
2018-Jun-20 18:33 211 1 gusting 6 17.8
2018-Jun-20 17:57 220 1 gusting 7 18.3
2018-Jun-20 17:30 217 2 gusting 8 18.9
2018-Jun-20 17:03 211 3 gusting 8 18.9
2018-Jun-20 16:54 227 3 gusting 11 19.4
2018-Jun-20 16:27 200 2 gusting 7 19.4
2018-Jun-20 16:18 196 3 gusting 12 20.0
2018-Jun-20 16:00 220 3 gusting 8 20.0
2018-Jun-20 15:42 223 5 gusting 13 20.6
2018-Jun-20 15:24 224 4 gusting 11 20.6
2018-Jun-20 15:15 215 4 gusting 11 20.6
2018-Jun-20 14:48 217 3 gusting 9 20.6
2018-Jun-20 14:39 204 3 gusting 7 20.0
2018-Jun-20 14:12 215 3 gusting 8 20.6
2018-Jun-20 14:03 207 3 gusting 7 20.0
2018-Jun-20 13:54 211 4 gusting 9 20.0
2018-Jun-20 13:45 206 4 gusting 11 20.0
2018-Jun-20 13:27 211 3 gusting 12 20.0
2018-Jun-20 12:33 201 2 gusting 5 17.8
2018-Jun-20 12:24 198 1 gusting 6 17.8
2018-Jun-20 12:06 193 2 gusting 10 17.2
2018-Jun-20 11:39 199 3 gusting 10 16.7
2018-Jun-20 11:21 207 2 gusting 9 16.1
2018-Jun-20 11:12 198 2 gusting 7 16.1
2018-Jun-20 11:03 202 1 gusting 8 16.1
2018-Jun-20 10:54 180 2 gusting 6 15.6
2018-Jun-20 10:45 200 0 gusting 6 15.6
2018-Jun-20 10:36 188 0 gusting 5 15.6
2018-Jun-20 10:00 184 1 gusting 6 15.0
2018-Jun-20 09:51 202 1 gusting 5 15.0
2018-Jun-20 09:42 219 0 gusting 5 15.0
2018-Jun-20 09:33 204 1 gusting 5 15.0
2018-Jun-20 09:24 209 1 gusting 8 15.6
2018-Jun-20 09:15 207 0 gusting 5 15.6
2018-Jun-20 08:57 204 1 gusting 6 15.6
2018-Jun-20 08:39 207 0 gusting 5 16.1
2018-Jun-20 08:21 200 0 gusting 4 16.7
2018-Jun-20 08:03 242 16.1
2018-Jun-20 07:36 225 1 gusting 7 16.1
2018-Jun-20 07:27 218 0 gusting 6 16.7
2018-Jun-20 07:18 227 0 gusting 5 17.2
2018-Jun-20 06:51 202 1 gusting 7 16.7
2018-Jun-20 06:33 228 0 gusting 3 16.1
2018-Jun-20 06:06 233 15.6
2018-Jun-20 05:57 213 0 gusting 6 15.6
2018-Jun-20 05:48 223 0 gusting 4 15.6
2018-Jun-20 05:39 213 15.6
2018-Jun-20 05:30 187 0 gusting 5 15.0
2018-Jun-20 05:12 194 15.0
2018-Jun-20 05:03 237 15.0
2018-Jun-20 04:45 214 0 gusting 4 15.0
2018-Jun-20 04:36 228 0 gusting 4 15.0
2018-Jun-20 04:27 205 14.4
2018-Jun-20 04:09 277 0 gusting 6 14.4
2018-Jun-20 04:00 293 0 gusting 6 14.4
2018-Jun-20 03:42 295 14.4
2018-Jun-20 03:33 290 13.9
2018-Jun-20 03:24 295 0 gusting 6 13.9
2018-Jun-20 03:06 273 13.9
2018-Jun-20 02:48 295 0 gusting 4 13.9
2018-Jun-20 02:21 302 1 gusting 5 13.9
2018-Jun-20 02:12 308 0 gusting 5 13.9
2018-Jun-20 01:54 299 0 gusting 4 13.9
2018-Jun-20 01:36 277 1 gusting 9 13.9
2018-Jun-20 01:09 272 2 gusting 8 13.9
2018-Jun-20 01:00 275 1 gusting 7 13.9
2018-Jun-20 00:42 270 2 gusting 6 13.9
2018-Jun-20 00:24 289 1 gusting 8 13.9
2018-Jun-19 23:57 290 4 gusting 7 13.9
2018-Jun-19 23:48 292 2 gusting 8 14.4
2018-Jun-19 23:39 295 3 gusting 11 14.4
2018-Jun-19 23:21 293 1 gusting 7 14.4
2018-Jun-19 23:12 290 4 gusting 11 14.4
2018-Jun-19 22:54 304 3 gusting 9 14.4
2018-Jun-19 22:36 271 1 gusting 7 14.4
2018-Jun-19 22:18 268 4 gusting 12 15.0
2018-Jun-19 22:09 288 4 gusting 10 15.0
2018-Jun-19 21:42 288 3 gusting 11 15.0
2018-Jun-19 21:24 295 3 gusting 11 15.0
2018-Jun-19 21:15 275 2 gusting 9 15.0
2018-Jun-19 21:06 295 4 gusting 9 15.6
2018-Jun-19 20:57 285 3 gusting 9 15.6
2018-Jun-19 20:39 290 5 gusting 11 15.6
2018-Jun-19 20:30 298 5 gusting 11 15.6
2018-Jun-19 20:21 293 6 gusting 16 15.6
2018-Jun-19 20:12 302 5 gusting 10 15.6
2018-Jun-19 20:03 298 4 gusting 10 15.6
2018-Jun-19 19:45 292 5 gusting 10 15.6
2018-Jun-19 19:36 293 5 gusting 10 15.6
2018-Jun-19 19:27 295 4 gusting 9 15.6
2018-Jun-19 19:18 297 6 gusting 12 16.1
2018-Jun-19 19:09 300 6 gusting 13 16.1
2018-Jun-19 19:00 297 6 gusting 13 16.1
2018-Jun-19 18:51 295 6 gusting 10 16.7
2018-Jun-19 18:42 299 6 gusting 12 16.7
2018-Jun-19 18:33 298 6 gusting 13 16.7
2018-Jun-19 17:48 294 6 gusting 18 17.8
2018-Jun-19 17:39 300 8 gusting 19 17.8
2018-Jun-19 17:21 299 6 gusting 12 17.8
2018-Jun-19 16:54 297 6 gusting 13 18.3
2018-Jun-19 16:45 307 8 gusting 19 18.3
2018-Jun-19 16:18 294 6 gusting 13 19.4
2018-Jun-19 16:09 289 6 gusting 13 19.4
2018-Jun-19 16:00 297 7 gusting 16 19.4
2018-Jun-19 15:51 296 7 gusting 13 19.4
2018-Jun-19 15:42 296 6 gusting 13 19.4
2018-Jun-19 14:30 293 6 gusting 13 20.6
2018-Jun-19 14:21 298 6 gusting 14 20.6
2018-Jun-19 14:12 307 7 gusting 13 20.6
2018-Jun-19 13:45 272 4 gusting 13 20.6
2018-Jun-19 13:36 299 6 gusting 13 20.0
2018-Jun-19 13:18 299 8 gusting 16 20.0
2018-Jun-19 13:00 293 9 gusting 19 20.6
2018-Jun-19 12:24 295 6 gusting 13 20.6
2018-Jun-19 12:15 303 6 gusting 11 20.6
2018-Jun-19 11:48 296 9 gusting 16 20.6
2018-Jun-19 11:39 272 6 gusting 13 20.6
2018-Jun-19 10:36 272 5 gusting 12 20.6
2018-Jun-19 10:27 286 5 gusting 13 21.1
2018-Jun-19 10:09 265 4 gusting 13 20.6
2018-Jun-19 09:42 246 3 gusting 8 20.6
2018-Jun-19 09:33 279 5 gusting 13 20.6
2018-Jun-19 09:24 279 5 gusting 11 20.6
2018-Jun-19 09:15 268 4 gusting 11 20.6
2018-Jun-19 08:48 250 3 gusting 13 20.6
2018-Jun-19 08:30 241 3 gusting 10 20.0
2018-Jun-19 07:54 254 3 gusting 10 19.4
2018-Jun-19 07:18 280 4 gusting 13 18.3
2018-Jun-19 07:09 283 4 gusting 13 17.8
2018-Jun-19 07:00 274 3 gusting 11 17.2
2018-Jun-19 05:57 208 2 gusting 9 16.7
2018-Jun-19 05:48 251 2 gusting 12 16.1
2018-Jun-19 05:03 269 3 gusting 10 15.6
2018-Jun-19 04:54 237 2 gusting 8 15.6
2018-Jun-19 04:09 267 3 gusting 9 15.6
2018-Jun-19 04:00 250 2 gusting 9 15.6
2018-Jun-19 02:39 239 1 gusting 6 15.6
2018-Jun-19 02:30 276 1 gusting 7 15.6
2018-Jun-19 02:12 262 0 gusting 5 15.6
2018-Jun-19 01:54 277 3 gusting 10 15.6
2018-Jun-19 01:45 258 2 gusting 7 16.1
2018-Jun-19 01:27 225 1 gusting 9 16.1
2018-Jun-19 01:18 210 2 gusting 8 16.1
2018-Jun-19 01:09 209 1 gusting 6 16.1
2018-Jun-19 01:00 235 2 gusting 8 16.1
2018-Jun-19 00:51 237 3 gusting 8 16.1
2018-Jun-19 00:42 220 2 gusting 8 16.1
2018-Jun-19 00:33 206 1 gusting 7 16.7
2018-Jun-19 00:15 201 1 gusting 8 16.7
2018-Jun-18 23:39 217 2 gusting 7 16.7
2018-Jun-18 23:30 199 1 gusting 7 16.7
2018-Jun-18 23:12 224 1 gusting 5 16.7
2018-Jun-18 23:03 236 1 gusting 4 16.7
2018-Jun-18 22:54 214 2 gusting 6 16.7
2018-Jun-18 22:45 202 2 gusting 9 16.7
2018-Jun-18 22:18 225 2 gusting 6 16.7
2018-Jun-18 22:09 225 2 gusting 8 16.7
2018-Jun-18 21:51 205 1 gusting 6 16.7
2018-Jun-18 21:42 232 1 gusting 5 16.7
2018-Jun-18 21:24 197 0 gusting 6 16.7
2018-Jun-18 21:15 190 1 gusting 6 16.7
2018-Jun-18 21:06 206 1 gusting 6 16.7